Home > Weather > Lugano > Past weeks

Flag for Switzerland Weather for the Past 2 Weeks in Lugano, Switzerland

Now
50 °F

Passing clouds.


Feels Like: 47 °F
Forecast: 23 / 45 °F
Wind: 7 mph from Northeast

Location: Lugano Airport

Current Time: Feb 10, 2016 at 12:45:19 PM

Latest Report: Feb 10, 2016 at 12:20 PM


Visibility: N/A

Pressure: 29.50 "Hg

Humidity: 28%

Dew point: 18 °F

Location of LuganoLocation

Historic Weather in Lugano — Graph

°F

Lugano Temperature Yesterday

Maximum temperature yesterday: 45 °F (at 5:50 PM)
Minimum temperature yesterday: 37 °F (at 3:20 AM)
Average temperature yesterday: 41 °F

High & Low Weather Summary for the Past Weeks

 TemperatureHumidityPressure
High59 °F (Jan 31, 2:50 PM)100% (Jan 27, 2:20 AM)30.48 "Hg (Jan 27, 2:20 AM)
Low28 °F (Jan 27, 5:50 AM)18% (Feb 3, 10:20 PM)29.33 "Hg (Feb 10, 1:20 AM)
Average42 °F81%30.17 "Hg
* Reported Jan 26 11:20 AM — Feb 10 11:20 AM, Lugano, Weather by CustomWeather, © 2016

Note: Actual official high and low records may vary slightly from our data, if they occured in-between our weather recording intervals... More about our weather records

Advertising

Lugano Weather History for the Previous 24 Hours

 ConditionsComfort  
Time TempWeatherWind HumidityBarometerVisibility
11:20 AM
Wed, Feb 10
48 °FPassing clouds.3 mph40%29.50 "HgN/A
10:50 AM45 °FSunny.3 mph61%29.47 "Hg10 mi
10:20 AM43 °FSunny.3 mph61%29.47 "Hg10 mi
9:50 AM37 °FSunny.5 mph75%29.45 "Hg10 mi
9:20 AM36 °FPassing clouds.3 mph81%29.45 "HgN/A
8:50 AM34 °FSunny.3 mph93%29.45 "Hg10 mi
8:20 AM32 °FSunny.3 mph93%29.42 "Hg10 mi
7:50 AM32 °FSunny.1 mph93%29.42 "Hg10 mi
7:20 AM32 °FClear.1 mph87%29.39 "Hg10 mi
6:50 AM34 °FClear.2 mph81%29.39 "Hg10 mi
6:20 AM34 °FClear.2 mph81%29.39 "Hg10 mi
5:50 AM36 °FPassing clouds.2 mph81%29.39 "HgN/A
5:20 AM37 °FClear.2 mph75%29.36 "Hg10 mi
4:50 AM41 °FPassing clouds.7 mph53%29.36 "HgN/A
4:20 AM37 °FClear.6 mph87%29.36 "Hg10 mi
3:50 AM37 °FChilly.3 mph100%29.36 "HgN/A
3:20 AM37 °FPassing clouds.2 mph100%29.36 "HgN/A
2:50 AM39 °FPassing clouds.3 mph93%29.36 "Hg4 mi
2:20 AM39 °FPassing clouds.3 mph100%29.36 "HgN/A
1:50 AM39 °FPassing clouds.2 mph100%29.33 "Hg6 mi
1:20 AM41 °FPartly cloudy.2 mph93%29.33 "HgN/A
12:50 AM41 °FThundershowers. Partly cloudy.6 mph100%29.36 "Hg4 mi
12:20 AM41 °FSprinkles. Passing clouds.5 mph100%29.36 "HgN/A
11:50 PM
Tue, Feb 9
41 °FPassing clouds.2 mph100%29.39 "Hg6 mi
11:20 PM41 °FLight rain. Fog.1 mph100%29.42 "Hg2 mi
10:20 PM43 °FPassing clouds.3 mph93%29.42 "Hg4 mi
9:50 PM43 °FLight rain. Fog.3 mph93%29.45 "Hg3 mi
9:20 PM43 °FRain. Fog.1 mph100%29.47 "Hg3 mi
8:50 PM43 °FRain. Fog.1 mph100%29.47 "Hg1 mi
8:20 PM43 °FRain. Fog.2 mph100%29.50 "Hg1 mi
7:50 PM43 °FRain. Fog.2 mph100%29.53 "Hg1 mi
7:20 PM45 °FRain. Fog.1 mph93%29.53 "Hg1 mi
6:50 PM45 °FRain. Fog.5 mph93%29.53 "Hg3 mi
6:20 PM43 °FRain. Fog.7 mph100%29.53 "Hg3 mi
5:50 PM45 °FRain. Fog.1 mph93%29.56 "Hg2 mi
5:20 PM43 °FRain. Fog.1 mph100%29.59 "Hg2 mi
4:50 PM43 °FRain. Fog.1 mph100%29.62 "Hg2 mi
4:20 PM43 °FLight rain. Fog.2 mph100%29.65 "Hg2 mi
3:20 PM43 °FRain. Fog.2 mph100%29.71 "Hg2 mi
2:20 PM43 °FDrizzle. Fog.3 mph100%29.74 "Hg2 mi
1:50 PM43 °FLight rain. Fog.3 mph100%29.80 "Hg2 mi
1:20 PM43 °FLight rain. Fog.1 mph93%29.80 "Hg2 mi
12:50 PM43 °FSprinkles. Fog.2 mph100%29.83 "Hg2 mi
12:20 PM43 °FSprinkles. Fog.2 mph93%29.86 "Hg2 mi
Weather by CustomWeather, © 2016

See weather overviewHow to use our weather pages